Location: Beccas
(43.4309°N, 0.1528°E)
Time: 14:59:46
(UTC+00:00)

X-37B - Visible Passes

Search period start: 23 September 2023 00:00
Search period end: 03 October 2023 00:00
Orbit: 277 x 277 km, 45.0° (Epoch: 01 November)

Date Brightness Start Highest point End Pass type
(mag) Time Alt. Az. Time Alt. Az. Time Alt. Az.
23 Sep 0.3 04:20:24 53° NNW 04:20:31 54° N 04:22:57 10° E visible
24 Sep 0.2 04:21:08 56° NNW 04:21:15 57° N 04:23:41 10° E visible
25 Sep 0.0 04:21:55 69° N 04:21:59 69° N 04:24:26 10° E visible
26 Sep -0.1 04:22:47 79° SE 04:22:47 79° SE 04:25:07 10° ESE visible
27 Sep 0.6 04:23:45 45° SSE 04:23:45 45° SSE 04:25:45 10° ESE visible
28 Sep 1.6 04:24:50 24° SSE 04:24:50 24° SSE 04:26:12 10° SE visible
29 Sep 2.7 04:26:03 12° SSE 04:26:03 12° SSE 04:26:24 10° SSE visible
